Year,Month,Day,Hour,Minute,Value (Times are PST for temperature in C)
2016,08,22,00,00,16.20
2016,08,22,00,01,16.20
2016,08,22,00,02,16.20
2016,08,22,00,03,16.20
2016,08,22,00,04,16.20
2016,08,22,00,05,16.20
2016,08,22,00,06,16.20
2016,08,22,00,07,16.20
2016,08,22,00,08,16.20
2016,08,22,00,09,16.20
2016,08,22,00,10,16.20
2016,08,22,00,11,16.20
2016,08,22,00,12,16.20
2016,08,22,00,13,16.20
2016,08,22,00,14,16.20
2016,08,22,00,15,16.20
2016,08,22,00,16,16.20
2016,08,22,00,17,16.20
2016,08,22,00,18,16.10
2016,08,22,00,19,16.10
2016,08,22,00,20,16.10
2016,08,22,00,21,16.10
2016,08,22,00,22,16.10
2016,08,22,00,23,16.10
2016,08,22,00,24,16.10
2016,08,22,00,25,16.00
2016,08,22,00,26,16.00
2016,08,22,00,27,16.00
2016,08,22,00,28,16.00
2016,08,22,00,29,15.90
2016,08,22,00,30,15.90
2016,08,22,00,31,15.90
2016,08,22,00,32,15.90
2016,08,22,00,33,15.90
2016,08,22,00,34,15.90
2016,08,22,00,35,15.80
2016,08,22,00,36,15.80
2016,08,22,00,37,15.80
2016,08,22,00,38,15.80
2016,08,22,00,39,15.80
2016,08,22,00,40,15.80
2016,08,22,00,41,15.80
2016,08,22,00,42,15.80
2016,08,22,00,43,15.70
2016,08,22,00,44,15.70
2016,08,22,00,45,15.70
2016,08,22,00,46,15.70
2016,08,22,00,47,15.70
2016,08,22,00,48,15.70
2016,08,22,00,49,15.70
2016,08,22,00,50,15.70
2016,08,22,00,51,15.60
2016,08,22,00,52,15.60
2016,08,22,00,53,15.60
2016,08,22,00,54,15.60
2016,08,22,00,55,15.60
2016,08,22,00,56,15.60
2016,08,22,00,57,15.60
2016,08,22,00,58,15.50
2016,08,22,00,59,15.50
2016,08,22,01,00,15.50
2016,08,22,01,01,15.50
2016,08,22,01,02,15.40
2016,08,22,01,03,15.40
2016,08,22,01,04,15.40
2016,08,22,01,05,15.40
2016,08,22,01,06,15.40
2016,08,22,01,07,15.40
2016,08,22,01,08,15.40
2016,08,22,01,09,15.30
2016,08,22,01,10,15.30
2016,08,22,01,11,15.30
2016,08,22,01,12,15.30
2016,08,22,01,13,15.30
2016,08,22,01,14,15.20
2016,08,22,01,15,15.20
2016,08,22,01,16,15.20
2016,08,22,01,17,15.20
2016,08,22,01,18,15.20
2016,08,22,01,19,15.20
2016,08,22,01,20,15.20
2016,08,22,01,21,15.20
2016,08,22,01,22,15.20
2016,08,22,01,23,15.20
2016,08,22,01,24,15.20
2016,08,22,01,25,15.30
2016,08,22,01,26,15.30
2016,08,22,01,27,15.30
2016,08,22,01,28,15.30
2016,08,22,01,29,15.40
2016,08,22,01,30,15.40
2016,08,22,01,31,15.40
2016,08,22,01,32,15.40
2016,08,22,01,33,15.40
2016,08,22,01,34,15.40
2016,08,22,01,35,15.40
2016,08,22,01,36,15.30
2016,08,22,01,37,15.30
2016,08,22,01,38,15.30
2016,08,22,01,39,15.20
2016,08,22,01,40,15.20
2016,08,22,01,41,15.10
2016,08,22,01,42,15.10
2016,08,22,01,43,15.00
2016,08,22,01,44,15.00
2016,08,22,01,45,14.90
2016,08,22,01,46,14.90
2016,08,22,01,47,14.90
2016,08,22,01,48,14.80
2016,08,22,01,49,14.80
2016,08,22,01,50,14.80
2016,08,22,01,51,14.80
2016,08,22,01,52,14.70
2016,08,22,01,53,14.70
2016,08,22,01,54,14.60
2016,08,22,01,55,14.60
2016,08,22,01,56,14.60
2016,08,22,01,57,14.50
2016,08,22,01,58,14.40
2016,08,22,01,59,14.40
2016,08,22,02,00,14.30
2016,08,22,02,01,14.30
2016,08,22,02,02,14.30
2016,08,22,02,03,14.30
2016,08,22,02,04,14.30
2016,08,22,02,05,14.30
2016,08,22,02,06,14.30
2016,08,22,02,07,14.30
2016,08,22,02,08,14.30
2016,08,22,02,09,14.30
2016,08,22,02,10,14.40
2016,08,22,02,11,14.40
2016,08,22,02,12,14.40
2016,08,22,02,13,14.40
2016,08,22,02,14,14.40
2016,08,22,02,15,14.40
2016,08,22,02,16,14.40
2016,08,22,02,17,14.40
2016,08,22,02,18,14.30
2016,08,22,02,19,14.30
2016,08,22,02,20,14.30
2016,08,22,02,21,14.20
2016,08,22,02,22,14.20
2016,08,22,02,23,14.10
2016,08,22,02,24,14.10
2016,08,22,02,25,14.10
2016,08,22,02,26,14.20
2016,08,22,02,27,14.20
2016,08,22,02,28,14.20
2016,08,22,02,29,14.20
2016,08,22,02,30,14.20
2016,08,22,02,31,14.20
2016,08,22,02,32,14.20
2016,08,22,02,33,14.20
2016,08,22,02,34,14.20
2016,08,22,02,35,14.20
2016,08,22,02,36,14.10
2016,08,22,02,37,14.10
2016,08,22,02,38,14.10
2016,08,22,02,39,14.10
2016,08,22,02,40,14.00
2016,08,22,02,41,14.00
2016,08,22,02,42,13.90
2016,08,22,02,43,13.90
2016,08,22,02,44,13.90
2016,08,22,02,45,13.90
2016,08,22,02,46,13.80
2016,08,22,02,47,13.80
2016,08,22,02,48,13.80
2016,08,22,02,49,13.70
2016,08,22,02,50,13.60
2016,08,22,02,51,13.60
2016,08,22,02,52,13.60
2016,08,22,02,53,13.50
2016,08,22,02,54,13.50
2016,08,22,02,55,13.40
2016,08,22,02,56,13.30
2016,08,22,02,57,13.30
2016,08,22,02,58,13.20
2016,08,22,02,59,13.20
2016,08,22,03,00,13.20
2016,08,22,03,01,13.20
2016,08,22,03,02,13.20
2016,08,22,03,03,13.10
2016,08,22,03,04,13.10
2016,08,22,03,05,13.10
2016,08,22,03,06,13.00
2016,08,22,03,07,13.00
2016,08,22,03,08,13.00
2016,08,22,03,09,12.90
2016,08,22,03,10,12.90
2016,08,22,03,11,12.90
2016,08,22,03,12,12.90
2016,08,22,03,13,12.80
2016,08,22,03,14,12.80
2016,08,22,03,15,12.80
2016,08,22,03,16,12.80
2016,08,22,03,17,12.70
2016,08,22,03,18,12.70
2016,08,22,03,19,12.70
2016,08,22,03,20,12.70
2016,08,22,03,21,12.60
2016,08,22,03,22,12.60
2016,08,22,03,23,12.50
2016,08,22,03,24,12.50
2016,08,22,03,25,12.50
2016,08,22,03,26,12.50
2016,08,22,03,27,12.40
2016,08,22,03,28,12.40
2016,08,22,03,29,12.40
2016,08,22,03,30,12.40
2016,08,22,03,31,12.40
2016,08,22,03,32,12.40
2016,08,22,03,33,12.40
2016,08,22,03,34,12.40
2016,08,22,03,35,12.50
2016,08,22,03,36,12.50
2016,08,22,03,37,12.50
2016,08,22,03,38,12.50
2016,08,22,03,39,12.60
2016,08,22,03,40,12.60
2016,08,22,03,41,12.70
2016,08,22,03,42,12.80
2016,08,22,03,43,12.80
2016,08,22,03,44,12.90
2016,08,22,03,45,13.00
2016,08,22,03,46,13.00
2016,08,22,03,47,13.10
2016,08,22,03,48,13.20
2016,08,22,03,49,13.20
2016,08,22,03,50,13.30
2016,08,22,03,51,13.30
2016,08,22,03,52,13.40
2016,08,22,03,53,13.40
2016,08,22,03,54,13.50
2016,08,22,03,55,13.60
2016,08,22,03,56,13.60
2016,08,22,03,57,13.70
2016,08,22,03,58,13.70
2016,08,22,03,59,13.80
2016,08,22,04,00,13.80
2016,08,22,04,01,13.80
2016,08,22,04,02,13.90
2016,08,22,04,03,13.90
2016,08,22,04,04,13.90
2016,08,22,04,05,13.90
2016,08,22,04,06,13.90
2016,08,22,04,07,14.00
2016,08,22,04,08,14.00
2016,08,22,04,09,14.10
2016,08,22,04,10,14.10
2016,08,22,04,11,14.10
2016,08,22,04,12,14.10
2016,08,22,04,13,14.10
2016,08,22,04,14,14.00
2016,08,22,04,15,14.00
2016,08,22,04,16,14.00
2016,08,22,04,17,13.90
2016,08,22,04,18,13.80
2016,08,22,04,19,13.80
2016,08,22,04,20,13.70
2016,08,22,04,21,13.60
2016,08,22,04,22,13.60
2016,08,22,04,23,13.50
2016,08,22,04,24,13.50
2016,08,22,04,25,13.40
2016,08,22,04,26,13.40
2016,08,22,04,27,13.30
2016,08,22,04,28,13.20
2016,08,22,04,29,13.20
2016,08,22,04,30,13.10
2016,08,22,04,31,13.10
2016,08,22,04,32,13.10
2016,08,22,04,33,13.00
2016,08,22,04,34,13.00
2016,08,22,04,35,12.90
2016,08,22,04,36,12.90
2016,08,22,04,37,12.80
2016,08,22,04,38,12.80
2016,08,22,04,39,12.80
2016,08,22,04,40,12.70
2016,08,22,04,41,12.70
2016,08,22,04,42,12.70
2016,08,22,04,43,12.70
2016,08,22,04,44,12.70
2016,08,22,04,45,12.70
2016,08,22,04,46,12.70
2016,08,22,04,47,12.70
2016,08,22,04,48,12.70
2016,08,22,04,49,12.70
2016,08,22,04,50,12.70
2016,08,22,04,51,12.70
2016,08,22,04,52,12.70
2016,08,22,04,53,12.70
2016,08,22,04,54,12.70
2016,08,22,04,55,12.70
2016,08,22,04,56,12.70
2016,08,22,04,57,12.80
2016,08,22,04,58,12.80
2016,08,22,04,59,12.90
2016,08,22,05,00,12.90
2016,08,22,05,01,12.90
2016,08,22,05,02,13.00
2016,08,22,05,03,13.10
2016,08,22,05,04,13.10
2016,08,22,05,05,13.10
2016,08,22,05,06,13.20
2016,08,22,05,07,13.30
2016,08,22,05,08,13.40
2016,08,22,05,09,13.40
2016,08,22,05,10,13.50
2016,08,22,05,11,13.60
2016,08,22,05,12,13.60
2016,08,22,05,13,13.70
2016,08,22,05,14,13.70
2016,08,22,05,15,13.70
2016,08,22,05,16,13.70
2016,08,22,05,17,13.70
2016,08,22,05,18,13.70
2016,08,22,05,19,13.70
2016,08,22,05,20,13.70
2016,08,22,05,21,13.80
2016,08,22,05,22,13.80
2016,08,22,05,23,13.80
2016,08,22,05,24,13.70
2016,08,22,05,25,13.70
2016,08,22,05,26,13.70
2016,08,22,05,27,13.70
2016,08,22,05,28,13.70
2016,08,22,05,29,13.70
2016,08,22,05,30,13.70
2016,08,22,05,31,13.70
2016,08,22,05,32,13.60
2016,08,22,05,33,13.60
2016,08,22,05,34,13.60
2016,08,22,05,35,13.60
2016,08,22,05,36,13.50
2016,08,22,05,37,13.50
2016,08,22,05,38,13.40
2016,08,22,05,39,13.40
2016,08,22,05,40,13.30
2016,08,22,05,41,13.30
2016,08,22,05,42,13.20
2016,08,22,05,43,13.10
2016,08,22,05,44,13.00
2016,08,22,05,45,13.00
2016,08,22,05,46,12.90
2016,08,22,05,47,12.80
2016,08,22,05,48,12.70
2016,08,22,05,49,12.70
2016,08,22,05,50,12.60
2016,08,22,05,51,12.60
2016,08,22,05,52,12.50
2016,08,22,05,53,12.50
2016,08,22,05,54,12.50
2016,08,22,05,55,12.50
2016,08,22,05,56,12.50
2016,08,22,05,57,12.50
2016,08,22,05,58,12.50
2016,08,22,05,59,12.60
2016,08,22,06,00,12.60
2016,08,22,06,01,12.60
2016,08,22,06,02,12.60
2016,08,22,06,03,12.70
2016,08,22,06,04,12.70
2016,08,22,06,05,12.70
2016,08,22,06,06,12.70
2016,08,22,06,07,12.80
2016,08,22,06,08,12.80
2016,08,22,06,09,12.80
2016,08,22,06,10,12.90
2016,08,22,06,11,12.90
2016,08,22,06,12,12.90
2016,08,22,06,13,12.90
2016,08,22,06,14,13.00
2016,08,22,06,15,13.00
2016,08,22,06,16,13.00
2016,08,22,06,17,13.10
2016,08,22,06,18,13.10
2016,08,22,06,19,13.10
2016,08,22,06,20,13.10
2016,08,22,06,21,13.10
2016,08,22,06,22,13.10
2016,08,22,06,23,13.10
2016,08,22,06,24,13.10
2016,08,22,06,25,13.10
2016,08,22,06,26,13.10
2016,08,22,06,27,13.10
2016,08,22,06,28,13.10
2016,08,22,06,29,13.10
2016,08,22,06,30,13.10
2016,08,22,06,31,13.10
2016,08,22,06,32,13.10
2016,08,22,06,33,13.00
2016,08,22,06,34,13.00
2016,08,22,06,35,12.90
2016,08,22,06,36,12.90
2016,08,22,06,37,12.90
2016,08,22,06,38,12.80
2016,08,22,06,39,12.80
2016,08,22,06,40,12.70
2016,08,22,06,41,12.70
2016,08,22,06,42,12.60
2016,08,22,06,43,12.60
2016,08,22,06,44,12.60
2016,08,22,06,45,12.50
2016,08,22,06,46,12.50
2016,08,22,06,47,12.40
2016,08,22,06,48,12.40
2016,08,22,06,49,12.40
2016,08,22,06,50,12.40
2016,08,22,06,51,12.40
2016,08,22,06,52,12.30
2016,08,22,06,53,12.30
2016,08,22,06,54,12.30
2016,08,22,06,55,12.40
2016,08,22,06,56,12.40
2016,08,22,06,57,12.40
2016,08,22,06,58,12.40
2016,08,22,06,59,12.40
2016,08,22,07,00,12.50
2016,08,22,07,01,12.50
2016,08,22,07,02,12.60
2016,08,22,07,03,12.60
2016,08,22,07,04,12.60
2016,08,22,07,05,12.70
2016,08,22,07,06,12.80
2016,08,22,07,07,12.90
2016,08,22,07,08,13.00
2016,08,22,07,09,13.10
2016,08,22,07,10,13.20
2016,08,22,07,11,13.30
2016,08,22,07,12,13.40
2016,08,22,07,13,13.40
2016,08,22,07,14,13.40
2016,08,22,07,15,13.60
2016,08,22,07,16,13.60
2016,08,22,07,17,13.70
2016,08,22,07,18,13.70
2016,08,22,07,19,13.80
2016,08,22,07,20,13.80
2016,08,22,07,21,13.80
2016,08,22,07,22,13.90
2016,08,22,07,23,13.90
2016,08,22,07,24,14.00
2016,08,22,07,25,14.10
2016,08,22,07,26,14.20
2016,08,22,07,27,14.20
2016,08,22,07,28,14.30
2016,08,22,07,29,14.30
2016,08,22,07,30,14.30
2016,08,22,07,31,14.40
2016,08,22,07,32,14.50
2016,08,22,07,33,14.50
2016,08,22,07,34,14.60
2016,08,22,07,35,14.60
2016,08,22,07,36,14.70
2016,08,22,07,37,14.80
2016,08,22,07,38,14.80
2016,08,22,07,39,14.90
2016,08,22,07,40,15.00
2016,08,22,07,41,15.00
2016,08,22,07,42,15.10
2016,08,22,07,43,15.10
2016,08,22,07,44,15.20
2016,08,22,07,45,15.20
2016,08,22,07,46,15.30
2016,08,22,07,47,15.30
2016,08,22,07,48,15.40
2016,08,22,07,49,15.40
2016,08,22,07,50,15.40
2016,08,22,07,51,15.50
2016,08,22,07,52,15.50
2016,08,22,07,53,15.60
2016,08,22,07,54,15.60
2016,08,22,07,55,15.70
2016,08,22,07,56,15.70
2016,08,22,07,57,15.70
2016,08,22,07,58,15.80
2016,08,22,07,59,15.80
2016,08,22,08,00,15.80
2016,08,22,08,01,15.90
2016,08,22,08,02,15.90
2016,08,22,08,03,15.90
2016,08,22,08,04,16.00
2016,08,22,08,05,16.10
2016,08,22,08,06,16.10
2016,08,22,08,07,16.10
2016,08,22,08,08,16.20
2016,08,22,08,09,16.20
2016,08,22,08,10,16.20
2016,08,22,08,11,16.20
2016,08,22,08,12,16.20
2016,08,22,08,13,16.20
2016,08,22,08,14,16.30
2016,08,22,08,15,16.30
2016,08,22,08,16,16.30
2016,08,22,08,17,16.30
2016,08,22,08,18,16.40
2016,08,22,08,19,16.40
2016,08,22,08,20,16.30
2016,08,22,08,21,16.40
2016,08,22,08,22,16.40
2016,08,22,08,23,16.40
2016,08,22,08,24,16.40
2016,08,22,08,25,16.30
2016,08,22,08,26,16.30
2016,08,22,08,27,16.30
2016,08,22,08,28,16.30
2016,08,22,08,29,16.30
2016,08,22,08,30,16.40
2016,08,22,08,31,16.40
2016,08,22,08,32,16.40
2016,08,22,08,33,16.40
2016,08,22,08,34,16.40
2016,08,22,08,35,16.40
2016,08,22,08,36,16.40
2016,08,22,08,37,16.40
2016,08,22,08,38,16.50
2016,08,22,08,39,16.50
2016,08,22,08,40,16.60
2016,08,22,08,41,16.60
2016,08,22,08,42,16.60
2016,08,22,08,43,16.60
2016,08,22,08,44,16.60
2016,08,22,08,45,16.70
2016,08,22,08,46,16.70
2016,08,22,08,47,16.70
2016,08,22,08,48,16.70
2016,08,22,08,49,16.70
2016,08,22,08,50,16.70
2016,08,22,08,51,16.70
2016,08,22,08,52,16.70
2016,08,22,08,53,16.70
2016,08,22,08,54,16.80
2016,08,22,08,55,16.80
2016,08,22,08,56,16.80
2016,08,22,08,57,16.80
2016,08,22,08,58,16.80
2016,08,22,08,59,16.80
2016,08,22,09,00,16.90
2016,08,22,09,01,16.90
2016,08,22,09,02,16.90
2016,08,22,09,03,17.00
2016,08,22,09,04,17.00
2016,08,22,09,05,17.00
2016,08,22,09,06,16.90
2016,08,22,09,07,17.00
2016,08,22,09,08,17.00
2016,08,22,09,09,17.00
2016,08,22,09,10,17.10
2016,08,22,09,11,17.10
2016,08,22,09,12,17.10
2016,08,22,09,13,17.20
2016,08,22,09,14,17.20
2016,08,22,09,15,17.30
2016,08,22,09,16,17.30
2016,08,22,09,17,17.30
2016,08,22,09,18,17.30
2016,08,22,09,19,17.30
2016,08,22,09,20,17.30
2016,08,22,09,21,17.30
2016,08,22,09,22,17.30
2016,08,22,09,23,17.40
2016,08,22,09,24,17.40
2016,08,22,09,25,17.40
2016,08,22,09,26,17.40
2016,08,22,09,27,17.40
2016,08,22,09,28,17.50
2016,08,22,09,29,17.50
2016,08,22,09,30,17.60
2016,08,22,09,31,17.60
2016,08,22,09,32,17.60
2016,08,22,09,33,17.60
2016,08,22,09,34,17.70
2016,08,22,09,35,17.70
2016,08,22,09,36,17.70
2016,08,22,09,37,17.70
2016,08,22,09,38,17.70
2016,08,22,09,39,17.80
2016,08,22,09,40,17.80
2016,08,22,09,41,17.90
2016,08,22,09,42,17.90
2016,08,22,09,43,18.00
2016,08,22,09,44,18.00
2016,08,22,09,45,18.00
2016,08,22,09,46,18.00
2016,08,22,09,47,18.00
2016,08,22,09,48,17.90
2016,08,22,09,49,17.90
2016,08,22,09,50,17.90
2016,08,22,09,51,17.90
2016,08,22,09,52,18.00
2016,08,22,09,53,18.00
2016,08,22,09,54,18.10
2016,08,22,09,55,18.10
2016,08,22,09,56,18.10
2016,08,22,09,57,18.10
2016,08,22,09,58,18.10
2016,08,22,09,59,18.20
2016,08,22,10,00,18.20
2016,08,22,10,01,18.20
2016,08,22,10,02,18.30
2016,08,22,10,03,18.30
2016,08,22,10,04,18.30
2016,08,22,10,05,18.20
2016,08,22,10,06,18.20
2016,08,22,10,07,18.20
2016,08,22,10,08,18.20
2016,08,22,10,09,18.20
2016,08,22,10,10,18.20
2016,08,22,10,11,18.30
2016,08,22,10,12,18.30
2016,08,22,10,13,18.30
2016,08,22,10,14,18.40
2016,08,22,10,15,18.60
2016,08,22,10,16,18.60
2016,08,22,10,17,18.60
2016,08,22,10,18,18.60
2016,08,22,10,19,18.50
2016,08,22,10,20,18.40
2016,08,22,10,21,18.40
2016,08,22,10,22,18.40
2016,08,22,10,23,18.40
2016,08,22,10,24,18.40
2016,08,22,10,25,18.40
2016,08,22,10,26,18.50
2016,08,22,10,27,18.50
2016,08,22,10,28,18.60
2016,08,22,10,29,18.60
2016,08,22,10,30,18.70
2016,08,22,10,31,18.70
2016,08,22,10,32,18.80
2016,08,22,10,33,18.80
2016,08,22,10,34,18.80
2016,08,22,10,35,18.70
2016,08,22,10,36,18.70
2016,08,22,10,37,18.70
2016,08,22,10,38,18.70
2016,08,22,10,39,18.80
2016,08,22,10,40,18.80
2016,08,22,10,41,18.90
2016,08,22,10,42,18.90
2016,08,22,10,43,19.00
2016,08,22,10,44,19.10
2016,08,22,10,45,19.10
2016,08,22,10,46,19.10
2016,08,22,10,47,19.10
2016,08,22,10,48,19.10
2016,08,22,10,49,19.10
2016,08,22,10,50,19.10
2016,08,22,10,51,19.10
2016,08,22,10,52,19.10
2016,08,22,10,53,19.10
2016,08,22,10,54,19.10
2016,08,22,10,55,19.10
2016,08,22,10,56,19.20
2016,08,22,10,57,19.30
2016,08,22,10,58,19.30
2016,08,22,10,59,19.40
2016,08,22,11,00,19.40
2016,08,22,11,01,19.50
2016,08,22,11,02,19.50
2016,08,22,11,03,19.50
2016,08,22,11,04,19.50
2016,08,22,11,05,19.60
2016,08,22,11,06,19.60
2016,08,22,11,07,19.70
2016,08,22,11,08,19.80
2016,08,22,11,09,20.00
2016,08,22,11,10,20.00
2016,08,22,11,11,20.10
2016,08,22,11,12,20.10
2016,08,22,11,13,20.10
2016,08,22,11,14,20.10
2016,08,22,11,15,20.20
2016,08,22,11,16,20.20
2016,08,22,11,17,20.20
2016,08,22,11,18,20.10
2016,08,22,11,19,20.00
2016,08,22,11,20,20.00
2016,08,22,11,21,19.90
2016,08,22,11,22,19.90
2016,08,22,11,23,20.00
2016,08,22,11,24,20.00
2016,08,22,11,25,20.10
2016,08,22,11,26,20.20
2016,08,22,11,27,20.20
2016,08,22,11,28,20.10
2016,08,22,11,29,20.10
2016,08,22,11,30,20.00
2016,08,22,11,31,20.00
2016,08,22,11,32,20.00
2016,08,22,11,33,19.90
2016,08,22,11,34,19.90
2016,08,22,11,35,19.90
2016,08,22,11,36,20.00
2016,08,22,11,37,20.00
2016,08,22,11,38,20.10
2016,08,22,11,39,20.20
2016,08,22,11,40,20.20
2016,08,22,11,41,20.30
2016,08,22,11,42,20.30
2016,08,22,11,43,20.20
2016,08,22,11,44,20.20
2016,08,22,11,45,20.20
2016,08,22,11,46,20.20
2016,08,22,11,47,20.10
2016,08,22,11,48,20.10
2016,08,22,11,49,20.00
2016,08,22,11,50,20.00
2016,08,22,11,51,20.00
2016,08,22,11,52,20.00
2016,08,22,11,53,20.00
2016,08,22,11,54,19.90
2016,08,22,11,55,20.00
2016,08,22,11,56,20.00
2016,08,22,11,57,19.90
2016,08,22,11,58,19.90
2016,08,22,11,59,20.00
2016,08,22,12,00,20.00
2016,08,22,12,01,20.10
2016,08,22,12,02,20.20
2016,08,22,12,03,20.20
2016,08,22,12,04,20.20
2016,08,22,12,05,20.30
2016,08,22,12,06,20.30
2016,08,22,12,07,20.40
2016,08,22,12,08,20.50
2016,08,22,12,09,20.50
2016,08,22,12,10,20.60
2016,08,22,12,11,20.60
2016,08,22,12,12,20.70
2016,08,22,12,13,20.70
2016,08,22,12,14,20.70
2016,08,22,12,15,20.80
2016,08,22,12,16,20.80
2016,08,22,12,17,20.80
2016,08,22,12,18,20.80
2016,08,22,12,19,20.70
2016,08,22,12,20,20.60
2016,08,22,12,21,20.50
2016,08,22,12,22,20.50
2016,08,22,12,23,20.60
2016,08,22,12,24,20.60
2016,08,22,12,25,20.50
2016,08,22,12,26,20.50
2016,08,22,12,27,20.50
2016,08,22,12,28,20.40
2016,08,22,12,29,20.50
2016,08,22,12,30,20.60
2016,08,22,12,31,20.60
2016,08,22,12,32,20.70
2016,08,22,12,33,20.80
2016,08,22,12,34,20.80
2016,08,22,12,35,20.80
2016,08,22,12,36,20.80
2016,08,22,12,37,20.80
2016,08,22,12,38,20.90
2016,08,22,12,39,21.00
2016,08,22,12,40,21.10
2016,08,22,12,41,21.20
2016,08,22,12,42,21.10
2016,08,22,12,43,21.00
2016,08,22,12,44,20.90
2016,08,22,12,45,20.80
2016,08,22,12,46,20.80
2016,08,22,12,47,20.80
2016,08,22,12,48,20.90
2016,08,22,12,49,20.90
2016,08,22,12,50,20.90
2016,08,22,12,51,20.90
2016,08,22,12,52,21.00
2016,08,22,12,53,21.00
2016,08,22,12,54,21.00
2016,08,22,12,55,21.00
2016,08,22,12,56,21.10
2016,08,22,12,57,21.10
2016,08,22,12,58,21.10
2016,08,22,12,59,21.10
2016,08,22,13,00,21.10
2016,08,22,13,01,21.10
2016,08,22,13,02,21.10
2016,08,22,13,03,21.20
2016,08,22,13,04,21.10
2016,08,22,13,05,21.10
2016,08,22,13,06,21.10
2016,08,22,13,07,21.20
2016,08,22,13,08,21.20
2016,08,22,13,09,21.30
2016,08,22,13,10,21.30
2016,08,22,13,11,21.40
2016,08,22,13,12,21.50
2016,08,22,13,13,21.50
2016,08,22,13,14,21.50
2016,08,22,13,15,21.40
2016,08,22,13,16,21.30
2016,08,22,13,17,21.30
2016,08,22,13,18,21.20
2016,08,22,13,19,21.20
2016,08,22,13,20,21.20
2016,08,22,13,21,21.20
2016,08,22,13,22,21.30
2016,08,22,13,23,21.30
2016,08,22,13,24,21.50
2016,08,22,13,25,21.60
2016,08,22,13,26,21.60
2016,08,22,13,27,21.70
2016,08,22,13,28,21.70
2016,08,22,13,29,21.80
2016,08,22,13,30,21.80
2016,08,22,13,31,21.80
2016,08,22,13,32,21.90
2016,08,22,13,33,21.90
2016,08,22,13,34,21.90
2016,08,22,13,35,21.90
2016,08,22,13,36,21.80
2016,08,22,13,37,21.80
2016,08,22,13,38,21.80
2016,08,22,13,39,21.60
2016,08,22,13,40,21.60
2016,08,22,13,41,21.60
2016,08,22,13,42,21.60
2016,08,22,13,43,21.60
2016,08,22,13,44,21.70
2016,08,22,13,45,21.70
2016,08,22,13,46,21.80
2016,08,22,13,47,21.80
2016,08,22,13,48,21.90
2016,08,22,13,49,21.90
2016,08,22,13,50,21.80
2016,08,22,13,51,21.70
2016,08,22,13,52,21.70
2016,08,22,13,53,21.60
2016,08,22,13,54,21.60
2016,08,22,13,55,21.60
2016,08,22,13,56,21.60
2016,08,22,13,57,21.70
2016,08,22,13,58,21.80
2016,08,22,13,59,21.90
2016,08,22,14,00,22.00
2016,08,22,14,01,22.10
2016,08,22,14,02,22.10
2016,08,22,14,03,22.20
2016,08,22,14,04,22.30
2016,08,22,14,05,22.40
2016,08,22,14,06,22.40
2016,08,22,14,07,22.40
2016,08,22,14,08,22.30
2016,08,22,14,09,22.30
2016,08,22,14,10,22.40
2016,08,22,14,11,22.40
2016,08,22,14,12,22.40
2016,08,22,14,13,22.40
2016,08,22,14,14,22.40
2016,08,22,14,15,22.40
2016,08,22,14,16,22.40
2016,08,22,14,17,22.40
2016,08,22,14,18,22.50
2016,08,22,14,19,22.50
2016,08,22,14,20,22.40
2016,08,22,14,21,22.30
2016,08,22,14,22,22.30
2016,08,22,14,23,22.10
2016,08,22,14,24,22.10
2016,08,22,14,25,22.10
2016,08,22,14,26,22.10
2016,08,22,14,27,22.10
2016,08,22,14,28,22.00
2016,08,22,14,29,22.00
2016,08,22,14,30,22.00
2016,08,22,14,31,22.00
2016,08,22,14,32,22.00
2016,08,22,14,33,22.00
2016,08,22,14,34,22.00
2016,08,22,14,35,22.00
2016,08,22,14,36,22.10
2016,08,22,14,37,22.10
2016,08,22,14,38,22.20
2016,08,22,14,39,22.20
2016,08,22,14,40,22.20
2016,08,22,14,41,22.30
2016,08,22,14,42,22.40
2016,08,22,14,43,22.50
2016,08,22,14,44,22.50
2016,08,22,14,45,22.40
2016,08,22,14,46,22.50
2016,08,22,14,47,22.60
2016,08,22,14,48,22.70
2016,08,22,14,49,22.80
2016,08,22,14,50,22.80
2016,08,22,14,51,22.80
2016,08,22,14,52,22.80
2016,08,22,14,53,22.70
2016,08,22,14,54,22.70
2016,08,22,14,55,22.70
2016,08,22,14,56,22.70
2016,08,22,14,57,22.70
2016,08,22,14,58,22.70
2016,08,22,14,59,22.70
2016,08,22,15,00,22.70
2016,08,22,15,01,22.70
2016,08,22,15,02,22.70
2016,08,22,15,03,22.70
2016,08,22,15,04,22.70
2016,08,22,15,05,22.70
2016,08,22,15,06,22.80
2016,08,22,15,07,22.80
2016,08,22,15,08,22.80
2016,08,22,15,09,22.80
2016,08,22,15,10,22.80
2016,08,22,15,11,22.70
2016,08,22,15,12,22.70
2016,08,22,15,13,22.70
2016,08,22,15,14,22.70
2016,08,22,15,15,22.70
2016,08,22,15,16,22.70
2016,08,22,15,17,22.70
2016,08,22,15,18,22.70
2016,08,22,15,19,22.70
2016,08,22,15,20,22.80
2016,08,22,15,21,22.80
2016,08,22,15,22,22.80
2016,08,22,15,23,22.90
2016,08,22,15,24,22.90
2016,08,22,15,25,22.90
2016,08,22,15,26,22.90
2016,08,22,15,27,22.90
2016,08,22,15,28,23.00
2016,08,22,15,29,23.00
2016,08,22,15,30,23.00
2016,08,22,15,31,23.10
2016,08,22,15,32,23.10
2016,08,22,15,33,23.20
2016,08,22,15,34,23.20
2016,08,22,15,35,23.20
2016,08,22,15,36,23.20
2016,08,22,15,37,23.20
2016,08,22,15,38,23.20
2016,08,22,15,39,23.20
2016,08,22,15,40,23.20
2016,08,22,15,41,23.30
2016,08,22,15,42,23.20
2016,08,22,15,43,23.20
2016,08,22,15,44,23.10
2016,08,22,15,45,23.20
2016,08,22,15,46,23.20
2016,08,22,15,47,23.30
2016,08,22,15,48,23.30
2016,08,22,15,49,23.20
2016,08,22,15,50,23.20
2016,08,22,15,51,23.20
2016,08,22,15,52,23.10
2016,08,22,15,53,23.00
2016,08,22,15,54,23.00
2016,08,22,15,55,23.00
2016,08,22,15,56,23.00
2016,08,22,15,57,23.00
2016,08,22,15,58,23.00
2016,08,22,15,59,23.00
2016,08,22,16,00,23.00
2016,08,22,16,01,23.00
2016,08,22,16,02,23.00
2016,08,22,16,03,23.10
2016,08,22,16,04,23.10
2016,08,22,16,05,23.10
2016,08,22,16,06,23.10
2016,08,22,16,07,23.20
2016,08,22,16,08,23.30
2016,08,22,16,09,23.40
2016,08,22,16,10,23.40
2016,08,22,16,11,23.40
2016,08,22,16,12,23.40
2016,08,22,16,13,23.40
2016,08,22,16,14,23.40
2016,08,22,16,15,23.30
2016,08,22,16,16,23.20
2016,08,22,16,17,23.20
2016,08,22,16,18,23.10
2016,08,22,16,19,23.10
2016,08,22,16,20,23.10
2016,08,22,16,21,23.20
2016,08,22,16,22,23.20
2016,08,22,16,23,23.30
2016,08,22,16,24,23.30
2016,08,22,16,25,23.40
2016,08,22,16,26,23.40
2016,08,22,16,27,23.50
2016,08,22,16,28,23.50
2016,08,22,16,29,23.60
2016,08,22,16,30,23.50
2016,08,22,16,31,23.50
2016,08,22,16,32,23.40
2016,08,22,16,33,23.40
2016,08,22,16,34,23.40
2016,08,22,16,35,23.40
2016,08,22,16,36,23.40
2016,08,22,16,37,23.40
2016,08,22,16,38,23.40
2016,08,22,16,39,23.50
2016,08,22,16,40,23.50
2016,08,22,16,41,23.60
2016,08,22,16,42,23.70
2016,08,22,16,43,23.80
2016,08,22,16,44,23.80
2016,08,22,16,45,23.70
2016,08,22,16,46,23.70
2016,08,22,16,47,23.70
2016,08,22,16,48,23.70
2016,08,22,16,49,23.70
2016,08,22,16,50,23.80
2016,08,22,16,51,23.80
2016,08,22,16,52,23.90
2016,08,22,16,53,23.90
2016,08,22,16,54,23.80
2016,08,22,16,55,23.80
2016,08,22,16,56,23.90
2016,08,22,16,57,23.90
2016,08,22,16,58,24.00
2016,08,22,16,59,24.00
2016,08,22,17,00,24.00
2016,08,22,17,01,24.00
2016,08,22,17,02,24.10
2016,08,22,17,03,24.10
2016,08,22,17,04,24.20
2016,08,22,17,05,24.30
2016,08,22,17,06,24.30
2016,08,22,17,07,24.30
2016,08,22,17,08,24.30
2016,08,22,17,09,24.20
2016,08,22,17,10,24.20
2016,08,22,17,11,24.20
2016,08,22,17,12,24.20
2016,08,22,17,13,24.20
2016,08,22,17,14,24.20
2016,08,22,17,15,24.20
2016,08,22,17,16,24.20
2016,08,22,17,17,24.10
2016,08,22,17,18,24.10
2016,08,22,17,19,24.10